Location: La Chapelle
(48.3135°N, 1.3085°W)
Time: 00:22:04
(UTC+00:00)

Gbstr 26 Del rocket - Pass Details

Date: 03 March 2021
Orbit: 492 x 1264 km, 51.8° (Epoch: 12 April)

Event Time Altitude Azimuth Distance (km) Brightness Sun altitude
Rises 19:52:44 0° 280° (W) 2,856 8.1 -20.6°
Reaches altitude 10° 19:54:51 10° 284° (WNW) 2,040 6.9 -21.0°
Maximum altitude 19:59:29 59° 5° (N) 854 3.7 -21.7°
Enters shadow 20:01:08 41° 62° (ENE) 1,117 4.0 -22.0°
